User: anonymous   Login
Location: Boiro
(42.6475°N, 8.8834°W)
Time: 08:54:12
(UTC+01:00)
Language:

deb Delta - Orbit

View from above orbital plane
View from above orbital plane
View from above satellite
View from above satellite

Ground track
Ground track

The orbit data is extracted from the following two-line orbital elements,

1 20008U 78026HR  22333.81533573  .00000712  00000-0  54773-3 0  9990
2 20008  98.8741 267.7197 0206100 324.0130  57.5412 13.86772825832264
Epoch (UTC): 29 November 2022 19:34:05
Eccentricity: 0.0206100
inclination: 98.8741°
perigee height: 789 km
apogee height: 1091 km
right ascension of ascending node: 267.7197°
argument of perigee: 324.0130°
revolutions per day: 13.86772825
mean anomaly at epoch: 57.5412°
orbit number at epoch: 83226

The dashed part of the orbit path shows where the satellite is in the earth's shadow,  

DLR